Terug naar catalogus

NOAA 16 DEB

ActiefSSO
NORAD 41089·DEBRIS·🇺🇸 United States

Gelanceerd Sep 21, 2000 vanaf Vandenberg Space Force Base

Loading…

Volgende Passages (komende 24 uur)

TLE

VersSource: Space-Track

Epoch: Sep 12, 2026, 10:47 UTC

1 41089U 00055AY  26255.44990693  .00002865  00000-0  10201-2 0  9993
2 41089  98.6854 338.8556 0006479 216.1066 143.9682 14.35055173558139

Volg NOAA 16 DEB in realtime met AllMySat

Download on the App Store